This demonstration page uses our WeatherBlox Daily Observations layout. Learn more.

Left ArrowRight Arrow

Hourly Observations for February 20, 2017

Temp ( °F °C ) Dew Point ( °F °C ) Humidity (%) Winds ( mph kmh ) Pressure ( in mb ) Visibility ( mi km ) Precip ( " mm )
12:51 am 00:51 Cloudy 48 8.9 43 6.1 83 83 WNW 7 11 30.06 1018 10 16 N/A
1:51 am 01:51 Cloudy 48 8.9 43 6.1 83 83 WNW 8 13 30.07 1018 10 16 N/A
2:51 am 02:51 Mostly Cloudy 46 7.8 42 5.6 86 86 W 8 13 30.07 1018 10 16 N/A
3:51 am 03:51 Mostly Clear 45 7.2 42 5.6 90 90 NW 6 9 30.08 1019 10 16 N/A
4:51 am 04:51 Partly Cloudy 45 7.2 42 5.6 90 90 N N/A 30.10 1019 10 16 N/A
5:51 am 05:51 Cloudy 45 7.2 43 6.1 93 93 N N/A 30.12 1020 10 16 N/A
6:51 am 06:51 Cloudy 45 7.2 42 5.6 90 90 SE 3 6 30.14 1021 10 16 N/A
7:51 am 07:51 Cloudy 47 8.3 43 6.1 86 86 SE 3 6 30.17 1022 10 16 N/A
8:51 am 08:51 Sunny 51 10.6 43 6.1 74 74 N N/A 30.19 1022 10 16 N/A
9:51 am 09:51 Mostly Sunny 55 12.8 44 6.7 67 67 WNW 7 11 30.19 1022 10 16 N/A
10:51 am 10:51 Sunny 58 14.4 39 3.9 50 50 W 9 15 30.19 1022 10 16 N/A
11:51 am 11:51 Mostly Sunny 62 16.7 36 2.2 38 38 W 12 19 30.18 1022 10 16 N/A
12:51 pm 12:51 Sunny 63 17.2 37 2.8 38 38 WNW 14 22 30.16 1022 10 16 N/A
1:51 pm 13:51 Sunny 64 17.8 37 2.8 37 37 W 15 24 30.14 1021 10 16 N/A
2:51 pm 14:51 Sunny 65 18.3 37 2.8 36 36 WNW 16 26 30.13 1020 10 16 N/A
3:51 pm 15:51 Sunny 65 18.3 38 3.3 37 37 NW 14 22 30.13 1020 10 16 N/A
4:51 pm 16:51 Sunny 65 18.3 38 3.3 37 37 WNW 12 19 30.13 1020 10 16 N/A
5:51 pm 17:51 Sunny 63 17.2 39 3.9 41 41 NW 12 19 30.15 1021 10 16 N/A
6:51 pm 18:51 Clear 58 14.4 40 4.4 51 51 WNW 8 13 30.17 1022 10 16 N/A
7:51 pm 19:51 Clear with Light Rain 55 12.8 41 5 59 59 WNW 7 11 30.20 1023 10 16 N/A
8:51 pm 20:51 Clear 54 12.2 41 5 62 62 WNW 9 15 30.20 1023 10 16 N/A
9:51 pm 21:51 Clear 53 11.7 42 5.6 66 66 W 10 17 30.22 1023 10 16 N/A
10:51 pm 22:51 Clear 47 8.3 40 4.4 77 77 NNW 6 9 30.24 1024 10 16 N/A
11:51 pm 23:51 Clear 47 8.3 41 5 80 80 NW 5 7 30.24 1024 10 16 N/A

Powered by AerisWeather